ONEWEB-0011 (44062 NORAD) Tracking and Keplerian Element Data

This shows tracking and keplerian element data for the satellite.

Feedback or suggestion? Click here.




ElementValue
Catalog44062
NameONEWEB-0011
Epoch Orbit300
Epoch Day80.94199301
Epoch Year2019
RAAN65.6622
Inclination87.7714
Eccentricity0.0012866
Argument of Perigee178.8179
Mean Anonmoly181.3016
Mean Motion13.70839049
Decay Rate4.4E-07
L11 44062U 19010F 19080.94199301 .00000044 00000-0 32620-4 0 9996
L22 44062 87.7714 65.6622 0012866 178.8179 181.3016 13.70839049 3000

Live tracking and technical data element details for ONEWEB-0011 (NORAD 44062). ONEWEB-0011 can be tracked NOW for your location showing map with azimuth and elevation plus other details from your city location.

Track the satellite on the map from your city or location and see movement details for azimuth, elevation, latitude, longitude, range, height, and movement on the map or in text.







IsCatalogInMostPopularTable: catalog: 44062, numindb: 297
Update: records affected: 1



GetName: 44062 ONEWEB-0011

Hit Count: updated at: Sat, 23 Mar 2019 00:11:53 GMT